RH
17 18 19 20 21 23 24 26 27 29 30 32 34 36 38 41 44 46 50 54 58 63 66 68 70 71 73 75 80 86 91 96 100 100 101 101 101 100 100 100 99 95 88 79 72 65 60 54 49 46 45 47 50 53 55 56 55 54 53 51 50 48 47 47 44 39 36 34 31 28 26 25 23 23 24 25 26 26 26 26 26 26 26 26 25
20 21 22 23 25 26 28 29 31 32 35 37 40 44 47 50 55 60 64 68 71 74 76 76 77 77 80 85 91 98 100 101 101 101 101 101 100 100 99 99 98 95 89 84 79 72 65 60 57 59 63 64 65 63 60 57 55 53 51 50 49 48 47 46 45 43 41 40 38 36 35 33 29 27 25 25 25 25 25 25 25 25 25 25 25
25 26 27 28 30 31 33 34 36 39 41 45 49 53 57 62 68 74 78 82 84 84 83 83 83 85 90 96 100 101 101 101 100 100 100 100 100 100 100 101 100 97 93 88 84 79 75 73 74 76 74 70 64 58 54 50 48 46 44 44 43 42 41 40 40 39 38 38 37 36 36 36 36 34 31 29 27 27 26 26 26 26 26 25 25
32 33 34 35 37 39 40 43 45 48 51 54 58 63 68 75 81 86 90 92 91 90 89 89 92 96 99 102 102 102 101 101 101 100 101 101 100 101 101 99 96 93 90 87 85 84 83 81 79 75 69 62 56 51 48 45 43 42 40 38 37 36 36 35 34 34 33 33 32 31 32 32 33 35 35 33 32 30 28 27 27 27 27 27 26
36 38 40 42 44 46 48 51 55 58 62 66 70 75 80 86 91 94 95 95 93 93 94 96 99 102 102 102 102 102 101 102 102 101 101 100 98 97 95 92 90 90 90 89 88 86 82 78 72 66 60 55 51 47 45 44 44 44 42 39 36 34 33 32 31 30 29 28 27 26 27 26 27 28 30 31 32 32 31 30 29 29 28 28 27
40 42 45 48 51 55 59 63 67 71 75 78 82 85 88 91 94 96 97 97 98 99 100 101 101 102 102 101 101 101 101 101 101 101 101 99 98 97 95 95 96 97 98 97 92 86 79 73 66 61 56 53 51 49 48 49 50 49 47 43 40 36 32 29 28 26 24 23 22 21 21 21 22 22 22 24 26 26 28 29 30 30 30 29 28
48 50 53 57 62 68 73 77 81 83 86 89 92 94 95 97 99 100 101 102 102 102 101 101 101 101 101 100 100 101 101 101 101 102 101 100 101 102 101 101 100 99 96 91 84 76 69 64 60 57 55 54 55 55 55 55 54 52 48 44 39 35 30 26 23 20 19 18 17 17 17 17 17 17 17 18 19 19 20 20 22 24 26 27 28
57 61 65 70 76 81 85 88 90 92 95 98 100 101 100 101 101 101 101 101 101 101 100 100 100 100 100 100 100 101 102 102 102 102 102 103 102 99 97 95 91 85 80 75 70 66 64 62 61 60 60 60 60 61 60 58 54 49 42 35 29 25 22 19 17 16 15 14 14 14 14 14 14 14 14 14 15 15 15 15 15 16 17 19 22
67 73 78 84 88 92 94 96 97 99 101 102 102 101 100 100 101 100 100 100 100 100 100 100 100 100 100 100 100 101 102 101 101 102 103 100 95 89 85 81 77 72 69 67 66 66 67 69 68 67 67 66 65 63 60 54 48 39 29 21 16 13 12 11 11 11 11 11 11 11 11 12 12 12 12 12 13 13 13 13 12 12 13 13 14
80 86 92 96 99 100 101 101 101 101 101 101 100 100 100 100 100 100 100 100 100 100 100 100 100 100 99 99 99 99 99 98 99 100 96 90 84 79 75 71 69 70 71 73 73 74 75 74 72 71 69 68 65 58 50 40 31 23 16 11 8 7 6 7 7 7 8 8 8 8 9 9 9 10 10 10 10 11 11 11 11 10 10 10 10
94 98 100 101 101 101 101 100 100 100 100 100 100 100 100 100 100 100 100 100 100 100 100 100 99 98 97 97 97 96 95 95 96 93 87 82 78 74 73 73 74 77 81 83 83 80 77 75 74 72 68 62 52 40 30 21 15 11 8 7 6 6 6 5 5 5 5 6 6 6 7 7 8 8 8 8 8 9 9 9 9 9 9 8 8
100 101 100 100 100 100 100 100 100 100 100 100 100 100 100 100 100 100 100 100 100 100 100 100 99 97 96 96 95 93 92 92 89 85 81 78 76 75 76 80 85 88 88 86 82 79 78 77 74 66 54 41 29 19 14 10 8 7 6 6 6 6 6 5 5 5 5 5 5 6 6 6 7 7 8 8 8 8 8 8 8 7 7 7 7
100 100 100 100 100 100 100 100 100 100 100 100 100 100 100 100 100 100 100 100 100 100 100 100 99 99 99 98 96 93 90 87 83 78 76 74 74 76 80 85 89 88 84 80 80 80 79 72 60 44 30 19 13 9 8 7 7 7 7 6 6 6 5 5 5 5 5 5 5 6 6 7 7 8 8 8 8 8 8 7 7 7 7 6 6
100 100 100 100 100 100 100 100 100 100 100 100 100 100 100 100 100 100 100 100 100 100 99 99 100 99 98 96 95 93 90 86 82 79 78 79 81 83 85 85 83 79 79 81 82 78 67 51 34 21 13 10 9 8 8 8 8 7 7 6 6 6 5 5 5 5 5 6 6 7 7 8 9 9 10 10 9 9 8 8 7 7 6 6 6
100 100 100 100 100 100 100 100 100 100 100 100 100 100 100 99 99 99 99 100 100 100 100 100 100 99 99 97 95 92 90 89 89 88 88 88 87 84 81 79 78 79 81 80 73 59 43 28 16 11 9 9 10 9 9 8 8 8 7 7 6 6 6 6 5 6 6 7 8 9 9 10 11 12 12 12 11 10 9 8 8 7 7 6 5
100 100 100 100 100 100 100 100 100 100 100 100 100 99 99 99 99 100 100 101 101 101 100 100 100 101 101 99 96 94 94 94 92 90 87 84 82 80 80 81 81 79 73 64 51 36 23 15 11 10 10 10 10 10 9 9 8 8 8 7 7 7 6 6 6 7 7 8 9 10 11 12 13 14 14 13 12 11 10 9 9 8 7 6 6
100 100 100 100 100 99 100 100 100 100 100 100 100 100 100 100 101 101 101 100 100 99 100 101 102 102 101 99 98 96 93 90 88 85 84 84 84 83 80 76 69 61 52 42 31 20 14 11 10 11 12 11 11 10 10 9 9 8 8 8 8 8 8 8 8 8 9 10 11 12 13 14 15 16 15 14 12 12 11 10 9 9 8 7 7
100 100 100 99 100 100 100 100 100 100 100 100 100 100 100 100 100 100 100 100 101 101 101 102 101 100 99 97 94 91 90 88 87 86 84 81 75 68 62 56 49 42 33 25 18 14 12 12 13 13 13 12 11 11 10 10 10 10 10 10 10 11 10 10 10 10 11 13 14 16 17 17 17 17 16 14 13 12 11 11 10 10 9 8 7
99 99 100 99 100 100 100 100 100 100 100 100 100 100 100 101 101 102 102 102 102 102 101 99 97 95 92 90 87 85 83 79 74 67 60 54 48 46 46 43 37 29 21 16 14 14 15 15 16 15 13 13 12 12 12 12 12 12 12 13 13 13 12 12 12 12 14 17 18 19 20 19 19 18 16 15 14 13 13 12 11 11 10 9 8
99 99 100 100 100 100 99 99 98 98 97 97 99 100 101 102 102 102 101 101 100 98 96 92 88 85 81 77 71 64 58 51 44 39 36 36 39 42 41 34 26 20 17 17 18 18 19 18 17 15 14 13 13 13 14 13 14 14 15 15 15 15 14 13 14 17 19 22 23 22 21 20 19 17 16 15 14 14 13 12 12 12 11 10 9
100 100 100 100 100 100 99 99 98 98 98 99 100 101 101 101 101 101 99 96 94 90 86 81 75 69 62 54 47 40 35 33 33 34 37 41 43 40 33 26 21 19 20 21 22 22 21 19 17 16 15 14 14 15 15 16 17 18 19 19 18 17 17 18 21 23 25 25 24 22 21 20 19 18 17 16 15 15 14 13 12 12 11 10 9
100 100 100 100 100 100 100 100 100 100 100 101 101 101 101 100 98 96 92 87 82 77 71 64 56 49 42 37 34 33 35 38 43 46 47 44 38 32 27 24 24 24 24 25 24 23 21 19 18 17 17 17 17 18 19 20 20 21 20 20 21 23 25 27 28 27 27 25 23 22 21 20 19 19 17 16 16 15 14 13 12 11 11 10 10
100 100 100 100 100 100 100 100 100 101 100 100 100 98 95 92 88 83 78 72 65 58 52 46 41 38 35 35 37 41 45 49 50 47 42 36 32 29 28 29 29 28 28 26 25 23 22 21 20 20 21 21 22 22 22 22 23 24 25 27 30 31 31 30 29 27 25 23 22 21 20 20 19 18 17 16 15 14 13 12 12 12 11 11 11
100 100 100 100 100 100 100 100 99 98 96 94 90 86 81 76 71 66 60 55 50 46 44 41 39 38 39 41 45 48 49 47 43 39 36 34 33 33 32 32 31 30 28 27 26 26 25 25 25 24 24 24 24 25 26 28 31 33 35 35 34 33 30 28 26 25 23 22 21 20 19 18 17 16 15 14 13 13 13 12 12 12 12 12 12
99 100 100 100 100 98 95 93 90 86 83 78 73 68 64 60 58 56 55 54 52 50 47 44 42 41 43 44 46 45 42 39 36 35 35 35 34 34 34 33 33 31 31 30 29 29 28 28 28 28 29 30 33 35 37 39 40 38 36 34 31 29 27 26 24 22 21 20 18 17 16 15 15 15 14 14 14 14 14 14 14 13 13 13 12
100 98 96 93 88 84 80 76 73 70 67 65 63 62 62 64 67 68 68 65 61 55 51 48 46 45 45 44 43 42 41 39 39 39 39 38 38 37 36 35 34 33 32 32 33 34 35 37 39 41 43 44 45 44 43 40 37 34 32 29 27 26 24 22 20 19 18 17 16 16 16 15 15 15 15 14 14 14 13 13 12 12 12 11 11
83 78 74 71 67 65 65 65 66 67 69 73 76 80 82 86 89 89 86 79 71 62 55 52 50 50 50 51 51 50 49 47 46 44 42 40 39 39 38 39 40 41 44 46 49 52 54 54 54 52 50 47 44 41 37 34 32 29 27 25 23 21 20 19 18 18 17 17 17 16 15 15 14 14 13 13 12 11 11 11 10 10 10 9 9
63 61 61 61 62 65 69 72 77 82 88 93 96 99 101 102 102 102 98 92 85 78 67 60 58 57 57 57 58 58 58 56 56 55 56 56 57 59 60 61 63 64 66 66 64 62 59 55 52 47 43 40 37 34 31 29 27 25 23 22 20 19 19 18 17 17 17 16 15 14 13 12 11 10 10 9 9 9 9 8 8 8 8 8 8
65 66 68 71 74 78 81 85 90 93 97 100 103 105 105 104 103 104 102 96 94 91 85 79 77 76 76 76 78 80 82 82 83 83 84 83 82 81 79 77 74 71 67 63 59 54 50 46 42 39 36 33 31 29 27 25 24 23 22 21 20 20 18 17 16 15 14 13 11 10 9 9 8 8 8 8 8 8 8 8 8 8 8 8 8
69 71 74 76 78 81 84 88 92 96 100 102 103 104 104 102 102 103 103 100 99 100 99 98 97 96 96 96 96 96 95 94 92 90 87 84 81 77 73 69 65 61 57 53 49 46 42 39 36 34 32 31 29 28 27 26 24 23 22 20 19 18 16 14 13 11 10 9 9 9 9 9 9 9 10 10 10 10 10 10 10 10 10 10 10
64 67 71 74 76 80 85 89 94 99 102 103 103 102 102 102 102 102 102 102 102 101 100 99 98 97 96 94 92 91 89 87 84 81 78 74 70 66 62 59 55 52 49 46 43 41 38 36 34 33 32 30 29 28 26 25 23 20 18 16 14 13 11 10 9 9 9 9 10 10 11 11 11 11 11 12 13 13 13 12 13 13 13 12 12
62 67 72 76 79 83 86 89 94 98 100 101 102 101 101 101 100 99 98 97 96 94 93 92 91 89 88 86 84 82 79 77 74 71 68 64 61 59 55 53 50 47 45 43 41 39 38 36 35 33 32 30 28 26 23 20 18 15 13 12 11 11 10 10 10 10 10 10 11 11 11 11 12 12 13 14 15 16 16 15 15 15 15 15 15
55 61 67 73 78 82 85 88 91 93 94 96 97 96 96 96 93 93 92 91 90 89 87 85 83 80 78 76 75 73 70 68 65 63 61 58 56 54 51 49 46 44 42 41 40 38 36 35 34 32 30 27 23 20 17 15 14 13 14 14 14 13 13 12 12 12 11 11 11 11 11 11 12 13 14 15 16 17 17 17 17 17 18 19 21
41 45 50 56 62 67 72 76 78 80 83 86 89 89 90 90 89 88 87 86 84 82 80 78 76 75 73 71 69 66 63 61 59 58 56 54 52 50 48 45 44 42 41 39 38 37 36 35 32 28 24 20 18 16 15 15 16 16 17 17 16 15 15 14 13 13 13 12 11 11 11 12 13 14 15 16 17 18 17 17 17 18 22 26 33
46 44 44 46 50 54 58 62 66 69 72 76 81 84 86 87 86 84 82 81 79 78 77 76 74 72 70 67 65 63 61 60 58 57 56 53 51 49 46 44 43 41 40 40 38 37 35 30 26 22 19 17 17 17 17 18 19 19 19 18 17 16 16 16 17 18 17 15 15 15 15 15 16 17 18 19 18 18 18 17 17 20 28 38 46
61 58 55 54 54 55 56 59 63 66 69 73 78 81 83 85 83 79 77 76 74 73 72 71 70 69 68 68 66 65 63 62 60 59 57 54 52 49 47 44 43 42 42 41 37 33 28 24 22 20 20 19 19 19 20 20 21 20 20 20 20 19 19 22 25 25 23 23 23 23 22 22 21 22 22 21 20 19 18 18 21 28 36 43 52
74 72 72 71 71 71 70 70 70 72 73 76 79 81 81 81 78 74 73 72 70 69 69 69 70 70 70 70 68 66 65 63 61 59 57 54 51 48 47 45 44 43 41 36 31 27 25 24 23 22 21 20 20 22 23 22 22 22 25 27 27 25 25 27 31 31 30 31 31 28 26 25 24 24 25 24 23 22 20 21 28 38 44 47 54
85 84 85 86 87 86 85 84 83 83 82 81 81 81 80 78 75 73 73 73 73 74 74 74 74 73 73 71 69 66 64 62 60 57 54 52 50 49 49 48 44 39 35 30 27 26 27 27 25 23 23 22 23 25 25 24 25 29 33 35 33 30 30 30 31 33 34 33 32 29 27 25 24 25 26 25 24 22 20 23 32 42 48 51 56
94 95 96 98 98 96 95 93 91 90 89 87 85 85 84 82 80 80 80 80 79 79 78 76 75 73 72 70 67 66 63 61 58 56 55 54 54 54 52 47 40 34 30 29 28 28 28 28 26 26 27 26 25 26 28 30 33 36 39 40 37 33 31 30 31 33 33 31 28 26 25 24 23 25 26 25 24 22 21 27 37 45 50 55 60
99 100 101 102 103 102 102 100 97 95 94 93 92 92 92 91 89 87 86 85 83 81 79 76 74 73 71 69 68 65 63 61 58 58 60 60 59 56 49 41 35 33 32 31 31 30 29 29 30 31 31 30 29 30 34 39 40 41 42 41 38 34 29 28 32 33 30 27 25 23 22 23 23 24 26 24 23 24 25 32 40 46 50 56 60
101 101 100 100 101 102 103 104 103 101 101 99 98 99 99 97 94 91 90 88 85 82 79 76 75 74 72 70 69 66 63 63 63 63 65 65 60 52 44 38 35 34 34 34 34 31 29 31 35 35 33 34 36 38 42 46 45 42 42 41 39 36 29 27 35 39 31 24 24 23 22 24 25 25 26 27 29 32 35 38 42 47 51 55 57
100 100 100 100 100 101 102 103 102 101 102 101 99 101 102 100 97 94 92 89 85 82 79 77 75 74 72 71 70 68 68 68 69 70 69 65 57 48 42 40 37 35 37 38 35 31 31 36 40 39 37 41 46 48 48 49 47 44 42 41 43 42 34 30 41 51 41 28 26 27 25 26 29 29 31 34 36 38 40 41 43 46 47 48 47
100 101 100 100 100 101 102 104 103 101 100 99 97 99 102 102 98 95 92 88 85 82 79 77 76 75 74 73 72 72 74 75 75 74 70 62 53 47 45 43 39 38 41 41 36 32 35 40 42 43 46 50 53 55 54 51 48 45 41 42 48 51 47 45 54 64 57 41 34 34 31 29 32 33 35 36 37 38 40 40 40 40 39 40 39
100 100 100 100 100 100 101 104 104 102 101 99 96 96 100 102 99 94 90 87 85 83 81 79 78 78 77 76 76 78 81 81 80 77 69 59 52 49 48 44 42 44 46 44 37 35 39 42 42 47 54 57 58 59 56 52 49 43 40 47 58 65 70 74 77 77 71 58 49 44 38 33 32 32 33 33 32 32 32 33 37 39 36 33 32
100 100 100 100 100 101 101 102 102 103 103 102 97 96 99 102 99 94 90 87 85 85 84 82 80 80 79 78 80 83 85 86 83 76 67 59 55 52 48 46 48 51 52 46 38 38 42 44 44 49 57 61 60 58 56 53 47 41 44 59 76 84 90 96 98 92 79 67 62 57 52 47 42 35 32 32 32 37 46 56 67 71 63 54 54
100 100 100 100 100 102 103 102 102 104 104 103 101 99 98 100 99 94 89 88 86 87 87 84 83 83 81 81 83 86 89 89 85 75 66 62 58 52 48 50 54 57 56 48 41 41 45 45 47 55 62 65 64 59 55 51 45 43 56 78 94 101 100 99 103 102 89 75 72 71 67 64 58 51 52 58 66 75 86 93 98 98 94 90 92
100 100 100 100 101 102 103 102 103 104 103 103 104 102 99 100 98 93 90 90 89 89 89 87 85 84 83 85 87 88 90 90 84 74 69 67 61 53 51 57 60 60 59 52 44 45 48 46 48 57 64 68 70 64 54 48 43 47 69 93 105 107 104 99 101 105 98 88 83 81 76 75 77 78 83 92 96 99 100 101 100 100 101 101 101
100 100 100 100 101 102 102 102 103 102 102 105 106 102 98 99 98 94 92 92 91 92 92 89 86 85 86 89 92 91 92 90 82 74 72 69 62 55 58 66 68 63 60 55 48 47 48 45 45 52 59 67 74 69 57 48 43 49 72 98 108 106 102 99 100 104 103 99 94 88 85 88 94 97 99 101 101 100 100 100 101 100 100 100 100
100 100 100 100 101 101 101 101 101 101 103 105 104 99 97 100 99 95 94 93 93 94 95 92 88 87 89 93 96 96 95 90 80 74 74 71 64 60 62 70 75 70 63 57 51 48 48 44 40 44 51 60 69 71 62 50 45 50 68 91 104 104 101 99 99 102 104 102 98 94 94 97 100 100 100 100 100 100 100 100 100 100 100 100 100
100 100 101 102 104 103 100 99 101 103 104 105 103 99 98 102 101 96 95 95 94 95 95 93 90 90 93 97 99 99 98 90 79 74 75 71 70 76 79 76 75 73 70 64 57 52 51 48 40 39 46 53 60 65 61 52 49 57 73 91 100 101 101 100 99 100 102 102 100 98 99 100 100 99 100 100 100 100 100 100 100 100 100 100 100
100 101 103 105 107 105 100 98 101 104 105 103 101 99 101 104 103 99 97 97 96 94 95 94 92 94 97 100 100 100 97 89 79 76 75 69 68 85 102 99 87 78 75 73 68 62 59 55 45 37 42 50 56 60 59 52 47 53 73 96 104 100 99 101 100 99 100 100 100 101 100 100 100 100 100 100 100 100 100 100 100 100 99 100 100
Wind_Speed
59 59 58 58 57 57 57 57 57 57 57 57 57 57 57 57 57 57 57 57 57 57 57 58 59 60 60 61 61 60 60 60 61 61 62 62 63 64 64 65 66 67 68 69 70 71 71 71 71 71 70 70 69 69 68 68 68 68 68 68 68 68 67 67 67 66 65 64 63 63 63 63 64 65 66 67 68 69 69 70 70 70 69 69 68
56 55 55 54 54 54 54 54 54 55 55 55 55 55 55 56 56 56 56 57 57 58 59 60 60 60 60 60 60 60 60 61 61 62 62 63 64 65 66 67 68 69 70 70 72 72 73 73 73 72 71 70 70 69 69 69 69 69 70 70 70 69 68 68 69 69 68 67 67 65 64 65 65 66 67 67 68 69 70 70 71 72 72 72 71
53 52 52 52 52 52 52 52 52 53 53 53 54 54 54 55 55 56 57 57 58 59 60 61 61 60 60 60 60 60 61 61 62 63 63 64 65 66 68 69 70 71 72 73 73 74 74 74 73 72 71 71 71 71 70 70 70 70 71 71 71 70 69 69 69 70 71 71 71 69 68 67 67 68 69 69 70 70 71 71 72 72 73 74 74
51 51 50 50 50 51 51 51 52 52 53 53 54 54 55 55 56 57 58 59 60 61 61 61 60 60 60 61 61 61 62 63 64 65 66 67 68 69 70 71 72 74 75 75 75 75 75 74 73 72 72 72 72 72 71 71 71 71 71 71 71 70 70 69 69 70 71 72 73 72 71 71 69 69 70 71 71 72 73 73 74 74 74 75 75
51 50 50 50 51 51 52 52 53 53 53 54 54 55 55 56 58 59 60 61 61 61 60 60 60 61 61 62 63 64 65 66 66 67 68 69 71 72 73 74 75 75 76 76 75 75 74 74 73 73 73 73 73 72 72 72 72 71 71 71 71 71 70 69 69 69 70 71 72 73 73 73 72 71 71 71 71 73 74 75 76 76 77 77 77
51 51 51 51 51 52 52 52 53 53 54 54 55 56 57 58 59 60 61 61 61 61 61 62 62 62 63 64 64 64 65 66 67 68 68 69 71 72 73 74 75 75 75 74 74 74 73 73 73 73 73 73 73 73 73 73 72 72 72 72 72 72 72 71 70 70 70 71 71 72 74 74 74 74 73 72 71 71 73 75 76 78 79 79 80
51 51 51 51 51 52 52 52 53 53 54 55 56 57 57 58 59 59 60 60 61 62 63 63 63 64 64 65 65 66 66 67 68 69 70 70 71 71 72 72 73 73 73 73 73 73 73 73 74 74 74 75 75 75 74 74 74 74 74 74 74 74 74 73 72 71 71 71 72 73 74 75 76 76 76 76 74 72 72 73 75 77 79 80 81
51 51 51 51 51 51 52 52 53 54 54 55 56 56 57 57 58 59 61 62 63 63 63 64 64 65 65 66 67 68 69 70 70 71 71 71 71 70 70 71 72 72 73 73 74 74 74 75 75 76 76 76 76 76 76 76 76 75 74 74 74 74 74 74 74 73 73 73 73 74 75 76 77 78 78 79 79 77 74 73 74 76 78 79 80
51 50 50 50 51 52 52 53 53 54 54 55 55 56 57 59 60 61 62 62 63 64 64 65 66 66 67 68 69 70 70 71 71 71 70 70 70 71 71 72 73 73 73 74 75 75 76 77 77 77 77 77 78 78 77 77 76 75 74 74 73 73 74 75 75 75 75 75 75 76 76 77 78 79 80 81 82 82 81 78 76 77 78 79 80
50 50 50 51 51 52 53 53 53 54 54 55 56 57 58 60 61 61 62 63 64 65 66 67 68 69 70 70 70 70 71 71 70 70 70 70 71 72 73 73 74 74 75 76 77 77 78 78 79 79 79 79 78 78 77 76 75 75 74 74 73 73 74 75 75 76 76 77 77 77 78 79 79 80 81 82 83 85 85 84 81 80 80 80 80
50 50 50 50 51 51 52 52 53 54 55 56 57 58 59 60 61 63 64 65 66 67 68 69 70 70 70 70 70 70 70 70 70 70 71 72 73 74 74 75 76 77 78 78 79 79 80 80 80 80 79 79 77 76 75 74 74 74 74 74 74 75 75 76 76 77 78 78 79 79 80 80 81 82 82 84 85 86 87 88 86 84 83 82 81
48 48 48 49 49 50 51 52 53 54 56 57 58 59 60 62 63 65 66 67 68 68 69 70 70 70 70 70 70 71 71 71 72 73 74 75 75 76 76 77 78 79 80 81 81 81 81 81 80 79 78 76 75 75 74 74 74 74 74 75 75 76 76 77 78 78 80 80 81 82 82 82 83 83 84 86 87 88 89 90 89 88 87 85 84
46 47 47 48 49 50 51 53 54 56 57 58 59 61 63 64 65 67 67 68 69 70 70 71 71 72 72 72 73 73 73 75 76 77 77 78 78 78 79 80 81 81 82 82 82 82 81 80 78 77 76 75 74 74 74 74 75 75 75 76 76 77 78 79 79 80 81 82 83 84 84 85 85 85 86 88 88 89 91 91 91 92 91 89 87
47 47 48 49 50 51 52 54 55 57 59 60 62 64 65 66 67 68 69 70 70 71 72 73 74 74 74 74 75 76 78 79 79 80 80 81 81 81 82 83 83 83 83 83 83 81 80 78 76 75 74 74 74 74 75 75 75 76 76 77 77 78 79 80 81 82 82 83 84 85 86 86 87 87 88 89 90 91 92 93 93 94 94 93 90
48 48 48 49 50 51 53 55 57 59 61 63 65 66 67 68 69 70 71 72 73 73 74 74 75 76 77 78 79 80 81 81 82 82 82 83 83 84 84 85 85 85 84 83 81 79 78 76 75 74 74 74 75 75 75 76 76 77 78 78 79 80 81 81 82 83 84 84 85 87 87 88 88 88 89 90 90 91 92 93 94 95 96 96 94
47 47 48 49 51 53 55 57 60 62 64 66 68 69 70 71 72 73 73 74 74 75 76 76 77 78 80 81 81 82 82 83 84 84 85 85 86 86 86 86 86 85 84 82 80 78 76 75 75 75 75 75 76 76 77 77 78 79 79 80 80 82 82 83 84 85 85 86 87 88 89 89 89 90 91 91 91 91 92 92 93 94 95 97 96
45 46 48 50 53 56 58 60 62 64 66 68 70 71 72 73 74 74 75 76 76 77 78 79 80 81 82 82 83 83 84 85 86 86 87 87 87 87 87 87 86 85 83 80 78 77 76 75 75 76 76 77 77 78 79 79 80 81 81 81 82 83 83 84 85 86 86 88 89 89 90 91 91 92 92 92 92 92 92 92 93 93 94 96 97
45 48 51 53 56 58 60 62 64 65 67 68 70 72 73 74 75 76 77 77 79 80 80 81 82 82 83 84 85 85 86 87 87 88 88 88 89 89 88 86 84 82 79 78 76 76 76 76 76 77 78 79 79 80 80 81 81 82 82 83 84 85 85 85 86 87 88 89 90 91 92 93 93 93 94 94 93 93 93 93 93 93 94 96 97
44 47 50 53 55 57 59 61 62 64 66 68 70 72 74 75 76 77 78 78 79 80 81 82 83 84 85 86 86 87 88 88 89 89 90 90 89 87 85 82 80 78 76 75 75 76 76 77 78 78 79 80 80 81 82 82 83 84 84 85 86 87 87 87 88 89 90 92 93 93 94 94 95 95 95 95 95 94 94 94 94 95 95 96 97
44 46 49 51 54 56 59 61 64 66 68 70 71 73 74 75 76 77 78 79 80 81 82 84 85 86 86 87 87 88 88 89 89 89 89 88 86 83 80 78 76 75 75 75 76 76 77 78 78 79 80 80 81 82 83 84 85 86 87 88 89 89 90 90 91 92 93 94 95 95 95 96 96 97 96 96 96 96 96 96 96 96 96 97 98
49 51 53 55 57 60 62 65 67 68 69 71 72 74 75 77 78 79 81 82 83 84 85 86 86 87 87 87 87 88 88 88 87 86 85 83 80 78 76 75 74 75 75 76 76 77 78 79 79 80 81 82 83 84 86 87 88 89 90 91 91 92 93 93 93 93 94 95 96 96 96 97 97 98 98 97 97 97 97 97 98 98 98 98 99
52 54 56 58 60 63 65 67 68 70 71 73 75 77 78 80 81 82 84 85 85 86 86 86 86 86 86 86 86 86 85 83 81 79 77 75 74 73 73 73 73 74 75 76 77 78 79 80 81 82 83 84 85 87 88 89 90 91 92 93 94 94 95 95 95 95 95 96 97 97 97 97 98 99 99 98 98 98 99 99 99 99 99 99 99
54 57 59 61 64 66 68 70 72 74 75 77 79 80 81 83 84 84 85 85 85 84 84 83 83 83 83 82 81 80 78 76 73 72 71 71 71 71 72 72 73 74 76 77 78 79 80 81 82 84 85 86 88 89 90 92 93 94 94 95 95 95 96 96 96 96 97 97 98 98 97 97 98 99 100 100 100 100 100 100 100 100 100 99 98
60 63 65 67 69 71 73 75 76 78 79 80 81 82 83 83 83 82 81 80 80 79 78 78 77 77 76 75 73 72 70 69 69 68 69 69 70 71 72 73 74 75 77 78 80 81 82 83 85 86 88 89 90 92 93 93 94 95 95 95 96 96 97 97 98 98 98 99 99 99 98 99 100 101 101 101 102 101 101 101 100 99 99 98 97
67 69 71 73 75 76 78 79 80 81 81 81 81 81 80 79 78 77 75 74 74 73 72 72 71 70 69 68 67 67 66 67 67 68 69 70 71 72 74 75 76 77 79 80 82 83 85 86 87 89 90 91 92 92 93 93 94 95 96 96 97 98 98 98 99 99 100 100 101 101 100 101 101 102 101 101 101 101 100 100 100 99 98 98 98
75 76 78 80 81 82 83 83 82 81 80 79 77 76 74 73 72 71 70 69 68 68 68 68 67 67 66 65 65 65 66 67 67 69 70 71 73 74 76 77 79 80 81 82 84 85 86 87 88 89 90 90 91 92 93 94 95 96 97 97 98 98 99 100 100 100 101 102 102 101 100 100 101 101 100 100 101 101 101 101 101 100 99 99 99
79 80 81 81 81 81 80 79 77 75 74 72 71 70 69 68 68 67 66 65 65 65 66 66 66 66 65 65 66 66 67 68 69 71 72 73 75 76 77 79 80 81 82 83 84 85 86 87 87 88 89 90 91 92 94 95 96 96 97 98 99 100 100 100 100 101 101 101 101 101 100 100 101 101 101 101 101 102 102 101 101 100 99 99 98
72 72 72 72 71 71 71 70 69 68 68 67 66 65 65 64 63 63 63 63 63 63 64 64 64 65 65 65 66 67 68 69 70 71 72 74 75 76 77 78 79 80 81 82 83 84 85 86 88 89 90 91 92 93 94 96 96 97 99 99 100 100 100 100 100 100 100 101 101 101 101 101 101 101 100 100 99 99 99 99 97 96 95 94 94
61 61 61 62 62 62 62 62 62 61 60 60 60 60 60 60 60 60 61 61 61 61 62 62 63 63 64 65 66 67 68 69 70 71 72 73 74 75 76 77 78 79 81 82 84 85 86 87 88 89 90 92 93 94 95 96 97 98 99 99 99 99 99 99 99 99 100 100 100 100 99 97 95 94 94 93 92 92 92 91 90 88 87 87 86
56 56 56 56 55 55 55 55 54 54 54 55 55 56 56 57 57 58 58 59 59 60 60 61 62 63 63 64 65 67 68 69 70 71 72 73 74 75 76 78 79 80 82 83 85 86 87 88 89 90 90 92 93 94 95 95 96 98 99 100 100 99 99 98 98 96 95 93 91 91 90 88 86 84 83 82 82 82 82 82 81 80 79 78 78
55 55 55 55 54 54 53 52 52 52 53 53 53 54 55 56 56 57 57 58 59 60 61 61 62 63 64 65 66 67 68 69 70 72 73 74 76 77 78 79 80 82 83 85 85 87 88 89 89 89 90 90 91 92 94 94 95 97 98 98 98 96 95 93 91 88 85 82 80 79 79 78 77 75 73 72 72 72 73 73 73 73 72 72 71
55 55 55 55 55 55 54 54 53 53 53 53 54 54 55 56 56 57 58 58 59 60 61 62 63 64 65 66 67 68 69 71 73 74 76 77 78 79 80 81 81 82 83 84 85 86 87 88 89 88 89 89 90 91 92 92 91 91 90 90 90 88 86 83 81 78 76 74 72 71 70 69 68 67 66 65 64 64 65 66 66 66 67 66 66
55 55 55 55 55 55 55 54 54 54 54 54 54 54 55 56 56 57 57 58 59 60 61 63 64 65 67 68 69 71 72 74 75 76 77 78 78 79 80 80 81 81 82 83 84 85 86 87 88 88 88 88 88 87 86 84 83 81 80 80 80 80 78 75 73 71 69 66 64 63 62 61 60 59 59 59 59 58 59 60 61 61 62 61 61
56 56 55 55 55 55 55 54 54 54 54 54 54 54 55 56 56 57 58 59 60 62 63 65 66 68 69 70 71 72 73 74 75 76 76 77 78 78 79 80 80 81 81 82 83 83 84 85 85 85 83 82 80 79 77 75 74 73 73 73 73 72 71 69 66 63 61 59 56 55 54 52 51 52 52 53 53 54 55 56 57 57 57 57 57
57 57 56 56 55 55 55 54 54 54 54 54 54 55 55 56 57 58 59 61 62 64 65 67 68 69 70 71 71 71 72 73 74 75 76 77 78 78 79 79 79 80 80 81 81 81 80 80 79 78 76 74 72 71 70 69 68 68 68 67 66 65 64 61 58 55 53 51 48 46 45 45 44 45 47 48 49 51 52 54 54 54 54 54 54
57 57 57 57 56 56 55 55 54 54 54 54 55 55 56 57 58 59 60 62 63 65 66 67 69 70 70 71 72 72 73 74 75 76 77 77 78 78 79 78 78 78 78 78 77 76 75 73 72 71 70 67 65 65 65 64 64 62 61 60 59 58 56 52 50 49 47 44 42 40 39 39 39 40 42 45 47 49 50 51 52 51 51 51 51
58 57 57 57 57 57 57 56 56 56 55 55 56 56 57 58 59 60 61 63 64 66 67 68 69 70 71 72 73 73 74 75 76 76 77 77 77 77 77 76 75 74 73 73 71 70 69 67 66 65 64 61 60 61 61 59 57 54 53 53 53 52 49 45 44 44 43 40 38 37 36 36 36 37 39 42 44 47 48 49 49 49 49 48 48
60 58 57 57 57 57 57 57 57 56 56 56 57 57 58 59 60 61 62 64 65 66 67 69 70 71 72 73 73 74 74 75 75 76 76 75 75 74 73 73 72 70 69 68 67 65 63 62 60 60 60 58 57 57 56 52 49 47 47 48 49 48 44 40 39 40 39 38 37 36 35 34 34 35 37 39 42 44 45 45 46 46 46 46 45
62 61 59 58 57 57 57 57 57 56 56 57 57 58 59 59 60 61 63 64 65 66 68 69 70 71 72 73 74 74 75 75 74 74 73 73 71 70 70 69 68 67 65 64 62 60 57 57 57 57 57 57 55 52 49 46 44 43 43 44 45 44 41 37 35 36 37 36 36 35 33 33 33 33 35 37 39 41 42 42 43 43 43 43 43
63 62 61 59 58 58 57 57 57 56 56 57 57 58 59 60 61 62 63 64 66 67 68 69 70 71 72 73 74 74 74 74 73 71 70 69 69 68 67 66 65 64 63 60 58 55 53 53 54 54 54 54 51 47 44 42 41 40 40 42 43 42 38 33 32 34 35 34 34 33 31 31 31 31 32 34 36 38 39 39 40 40 40 41 42
64 63 62 60 59 59 58 58 57 57 57 57 57 58 59 60 61 62 64 65 66 67 68 70 70 71 72 73 73 73 73 72 70 68 67 67 67 66 66 64 63 61 59 56 53 52 50 49 51 52 51 49 47 44 41 40 39 38 38 39 41 39 35 31 30 32 32 31 30 29 28 27 28 28 29 30 32 34 35 36 36 36 37 39 41
64 64 62 61 60 59 59 59 59 58 57 57 58 59 60 61 62 63 64 65 66 68 69 70 71 71 72 72 72 72 71 69 67 65 65 65 65 65 65 63 61 57 54 52 50 49 47 47 47 49 48 45 42 42 41 39 37 37 36 37 37 36 33 30 28 28 29 27 25 24 23 23 24 25 26 27 29 31 32 33 33 34 36 38 39
64 63 62 61 60 60 59 59 59 59 58 58 59 59 61 62 63 64 65 66 67 68 69 70 71 71 71 71 70 69 68 66 64 63 63 63 63 63 63 61 57 54 51 49 48 46 45 44 44 44 44 41 40 40 40 38 36 35 35 35 34 32 30 29 27 25 24 23 21 20 20 21 22 23 25 26 28 29 30 29 29 32 35 37 37
64 63 62 61 60 59 59 59 59 59 59 60 60 60 61 62 63 64 65 66 67 68 69 70 70 70 70 69 68 67 65 63 63 63 63 62 62 61 59 57 54 51 49 47 45 43 42 42 41 40 39 39 38 39 39 38 35 34 33 33 32 29 27 27 25 23 21 20 18 18 19 20 22 23 25 26 27 27 27 26 26 29 33 35 35
63 63 62 61 60 59 59 59 60 60 60 61 61 61 62 63 64 64 65 66 67 68 69 69 69 69 69 67 66 64 63 62 62 63 62 61 60 58 56 53 51 49 47 45 42 41 40 40 39 37 36 36 37 37 38 37 34 32 32 31 29 28 25 24 24 22 19 18 17 17 18 19 21 22 23 24 24 23 23 22 23 26 29 30 31
63 62 62 61 60 60 59 59 60 60 61 62 63 63 63 63 64 65 66 67 67 68 68 69 68 68 67 65 63 61 61 61 62 62 62 61 60 57 53 51 49 48 46 44 41 39 38 37 36 35 34 34 35 36 36 35 32 30 29 28 27 26 23 21 21 21 19 17 17 17 17 18 19 20 20 20 20 19 19 19 21 24 26 27 28
63 62 61 61 60 60 59 59 60 60 61 62 63 64 64 64 65 65 66 66 67 67 67 68 67 66 65 63 61 59 59 60 61 60 60 60 58 56 52 50 48 47 45 42 39 37 36 34 32 32 31 32 33 35 35 33 30 28 27 25 24 23 21 18 20 21 19 17 17 17 18 17 18 18 18 17 17 17 18 19 20 22 24 26 27
63 62 61 60 60 60 59 59 60 60 61 63 64 65 65 65 65 66 66 66 66 66 67 67 66 65 63 61 59 58 58 58 59 58 58 58 56 53 51 49 48 46 44 41 38 35 33 31 29 28 27 27 29 32 34 33 29 26 25 23 21 21 20 17 18 21 20 18 17 18 18 17 17 16 16 16 16 16 17 19 21 23 25 26 28
62 61 61 60 60 60 59 59 60 61 61 63 64 65 65 65 65 66 66 66 66 66 66 66 65 63 61 59 58 57 57 57 57 56 56 56 55 52 49 47 47 47 45 42 38 36 33 30 27 26 24 23 24 27 31 32 29 26 25 22 18 19 19 17 17 20 20 19 18 18 18 18 17 17 16 15 15 16 17 19 22 24 26 27 27
63 61 60 60 60 60 60 60 60 61 62 63 64 65 65 65 65 66 66 65 65 65 65 65 64 62 59 57 56 56 57 56 55 54 53 52 52 52 50 47 45 45 45 44 41 38 36 33 29 26 24 22 22 24 27 28 27 25 25 22 17 16 18 18 17 18 20 19 19 19 19 19 19 18 17 16 17 17 18 20 22 24 25 26 26
63 61 61 60 60 61 61 60 61 61 63 64 65 65 65 65 65 65 65 65 65 64 64 63 62 59 57 56 55 55 55 55 54 53 51 49 47 47 49 49 46 44 44 43 42 40 39 37 33 28 25 23 22 23 25 25 24 23 23 21 18 15 17 18 18 18 18 18 19 19 19 19 19 19 18 18 18 19 20 22 23 24 24 24 24
Wind_Direction
287 287 287 286 286 285 284 284 283 283 282 282 282 281 281 281 280 279 278 278 277 277 277 277 278 278 278 278 278 278 277 276 276 276 276 276 276 276 276 276 276 277 277 277 277 277 277 277 277 278 278 278 278 277 277 276 276 275 275 275 275 274 274 274 273 271 269 268 265 264 263 262 260 260 259 259 259 258 257 256 256 256 256 255 255
288 288 287 286 285 284 284 283 283 283 282 282 281 281 280 279 279 278 277 277 277 277 277 278 278 278 278 277 277 276 276 275 275 275 275 276 276 277 277 277 277 277 277 276 277 277 277 277 278 278 278 278 277 277 276 276 275 275 274 274 274 273 273 272 272 272 271 270 268 266 264 263 262 261 260 259 259 259 258 258 257 257 256 256 255
288 288 287 286 285 284 284 283 283 282 282 281 280 280 279 278 278 277 277 276 277 277 278 278 278 277 277 276 275 274 274 274 274 274 275 275 276 276 276 276 276 275 275 275 276 276 276 276 277 277 277 277 276 276 276 276 275 275 274 274 273 273 272 272 271 271 271 270 269 268 266 264 263 263 262 261 260 259 258 258 258 257 257 256 256
288 287 287 286 285 284 284 283 282 282 281 280 280 279 278 278 277 276 276 276 277 277 277 277 276 276 275 275 274 273 273 273 273 273 273 273 273 274 274 274 274 274 275 275 275 275 275 275 276 276 277 277 277 276 277 277 277 277 276 275 274 273 273 272 272 271 271 270 269 268 267 265 263 263 262 262 262 261 259 259 258 257 257 257 256
288 287 287 286 285 284 283 282 282 281 280 280 279 278 277 277 276 276 276 276 276 276 275 275 274 274 274 274 274 274 275 274 274 274 274 274 274 274 274 275 275 275 276 276 276 276 276 277 278 278 278 278 278 278 279 279 280 280 279 278 276 275 274 273 273 273 271 270 269 269 268 266 264 262 261 261 261 262 261 260 260 258 257 256 256
288 288 287 286 285 283 282 282 281 280 280 279 278 277 277 276 275 275 275 275 275 275 275 274 274 273 273 273 274 274 275 275 275 275 275 275 275 275 276 276 276 276 276 276 277 277 278 279 279 280 280 280 281 281 282 282 283 283 282 281 280 278 276 275 274 274 272 271 270 269 268 267 266 264 262 260 259 260 261 261 261 260 259 258 256
288 287 286 285 284 283 282 281 281 280 279 279 278 278 277 277 276 276 276 276 276 276 276 275 274 274 274 274 273 273 273 273 273 273 273 273 274 275 275 275 276 276 276 277 277 278 279 280 280 281 282 282 283 283 284 284 284 284 283 282 281 280 278 277 275 274 273 272 271 270 269 268 268 266 265 262 259 258 259 260 261 260 260 259 258
287 286 285 284 283 283 282 282 281 281 281 280 280 279 278 278 277 277 277 277 277 276 276 275 275 274 274 274 273 273 273 273 273 273 273 274 274 275 275 275 276 276 277 278 279 280 281 282 282 283 283 284 284 284 284 284 283 283 282 281 280 279 278 277 276 275 274 273 272 272 270 270 269 268 267 265 263 260 258 259 260 260 260 260 259
286 285 285 284 283 283 283 283 282 282 281 280 280 279 279 279 278 278 278 277 277 276 276 275 275 274 274 274 274 274 274 274 274 274 275 275 275 275 276 276 277 278 279 281 282 283 284 284 284 284 284 284 284 284 283 282 281 280 279 279 278 277 277 277 276 276 275 275 274 273 272 271 271 270 269 268 266 264 260 259 259 260 260 260 260
287 286 285 285 284 284 284 283 283 282 281 281 280 280 280 280 279 278 278 277 277 276 276 276 276 275 275 275 275 275 275 276 276 276 276 276 276 277 278 279 280 281 282 283 284 284 284 284 284 284 284 283 283 282 281 280 279 278 277 277 277 277 277 277 277 277 277 276 276 275 275 274 273 272 271 271 269 267 265 262 261 260 259 259 260
289 288 287 287 286 286 285 284 283 282 282 281 281 281 280 279 278 278 278 277 277 277 277 278 278 277 277 277 277 277 277 277 277 278 278 279 280 281 282 283 283 284 284 284 284 284 284 284 284 283 282 281 280 279 278 277 276 276 276 276 277 277 277 278 278 278 278 278 278 277 277 276 276 275 274 273 272 271 269 266 265 264 261 259 259
291 290 289 288 287 286 285 284 284 283 282 281 281 280 279 279 278 278 278 278 278 279 279 279 279 279 280 280 280 279 279 279 280 280 281 282 282 283 283 284 284 285 285 285 284 284 284 283 282 281 280 278 277 276 275 275 275 275 276 276 277 277 278 278 278 279 279 279 279 279 278 278 278 277 277 276 275 274 272 270 268 267 265 262 260
291 290 289 288 287 286 285 284 283 282 281 280 280 279 278 278 278 278 278 278 279 279 280 280 281 281 281 281 281 282 282 282 282 282 283 283 283 283 283 284 284 284 284 284 283 283 282 281 280 278 277 276 275 274 274 275 275 275 275 276 277 277 278 278 279 279 279 280 280 280 280 279 279 279 279 278 277 276 275 273 272 271 269 266 264
291 289 288 287 286 285 283 282 281 280 279 278 277 277 277 277 277 278 278 278 279 279 280 281 281 282 282 282 282 282 283 283 283 283 283 283 283 283 283 283 283 282 282 282 282 281 280 278 277 275 274 274 274 274 274 275 275 275 276 276 277 277 278 278 279 279 279 280 280 280 280 280 280 280 280 279 278 277 276 275 274 273 271 269 267
290 289 288 286 285 283 282 281 279 278 277 276 275 275 276 277 277 278 278 279 279 280 281 281 282 282 282 282 282 282 283 283 283 284 284 283 283 283 283 282 282 282 281 281 280 278 276 275 273 273 273 273 274 274 274 275 275 276 276 277 277 277 277 278 278 278 279 279 279 280 280 280 280 280 280 280 279 278 277 276 275 274 273 271 269
290 289 287 285 284 282 280 279 278 277 276 276 276 276 277 278 278 278 279 279 280 280 281 281 281 282 282 282 283 283 284 284 284 284 284 283 283 283 282 282 282 282 281 280 278 276 274 272 272 272 272 273 273 274 274 275 275 276 276 277 277 278 278 278 278 278 278 278 279 279 279 280 280 280 280 280 279 278 277 276 275 274 273 272 270
289 287 285 283 281 279 278 277 277 277 276 277 277 277 278 278 278 279 279 280 280 280 280 280 281 281 282 283 283 284 284 284 284 284 284 283 283 283 283 283 282 282 280 278 276 274 273 272 272 273 273 273 274 274 274 275 275 276 276 277 277 278 278 278 279 279 279 279 278 279 279 279 280 280 279 279 278 277 276 275 274 274 273 272 271
287 284 282 281 279 279 278 278 277 277 277 277 277 277 277 277 277 278 278 278 279 279 280 281 281 282 283 283 284 284 284 284 284 284 283 283 283 283 284 283 282 280 278 276 274 273 272 273 273 273 273 274 274 274 275 275 276 277 277 278 278 278 278 279 279 279 279 279 279 279 279 279 279 279 278 278 277 276 275 274 273 272 272 272 271
282 280 280 279 278 278 277 276 276 275 275 275 275 275 276 276 277 277 278 279 280 281 282 282 283 284 284 284 284 284 284 284 284 284 284 284 284 284 284 282 280 277 275 273 273 272 273 273 273 274 274 274 275 275 276 276 277 277 278 278 278 278 279 279 279 279 279 279 279 278 278 278 278 277 277 276 275 274 273 272 272 271 271 271 271
274 273 273 273 273 272 272 272 271 271 272 273 274 276 277 279 280 281 282 283 284 285 285 286 286 286 286 286 286 285 285 285 285 285 285 285 284 283 282 279 277 275 273 273 273 273 273 274 274 275 275 275 276 276 277 277 278 278 278 279 279 279 279 279 279 279 279 278 278 278 278 277 277 276 275 275 274 273 272 271 271 270 270 270 270
272 271 271 270 270 271 271 272 273 274 276 278 279 281 283 284 285 286 287 287 288 288 288 288 288 288 288 287 287 286 286 286 286 285 285 284 283 281 279 277 275 274 274 274 274 274 275 275 275 276 276 277 277 278 278 278 279 279 280 280 280 280 280 279 279 279 278 278 277 277 277 276 276 275 274 273 272 272 271 271 270 270 270 269 269
271 271 271 272 274 275 277 279 281 282 284 285 286 287 288 289 289 290 290 291 290 290 290 290 289 289 288 287 287 287 287 286 286 285 284 282 281 279 277 276 276 275 276 276 276 276 277 277 277 278 278 278 279 279 279 280 280 280 281 281 281 281 280 280 279 278 278 277 277 276 276 275 275 274 273 272 272 271 270 270 270 269 269 268 268
276 277 279 281 282 284 286 287 288 289 290 291 291 292 292 293 293 293 293 292 292 291 290 290 289 289 288 288 288 287 287 286 285 284 282 281 280 279 278 278 278 278 278 278 278 278 279 279 279 279 280 280 280 281 281 281 281 281 281 281 281 280 280 279 279 278 278 277 276 276 275 274 274 273 272 272 271 270 270 269 268 268 267 267 266
286 287 288 289 290 291 291 292 292 293 294 294 295 295 295 295 294 294 293 292 291 291 291 290 290 290 290 289 289 288 287 286 285 283 282 281 281 280 280 280 280 280 280 280 280 280 281 281 281 281 281 282 282 282 282 282 282 282 281 281 280 280 280 279 279 278 278 277 276 275 275 274 273 272 272 271 271 270 269 268 267 266 266 265 264
291 292 292 292 293 293 294 294 295 295 296 296 296 296 295 294 293 293 292 292 291 291 292 292 292 292 291 290 289 288 286 285 284 284 283 282 282 282 281 281 281 282 282 282 282 282 283 283 283 283 283 283 283 283 282 282 282 281 281 281 280 280 280 279 279 278 278 277 276 275 275 274 273 272 271 271 270 269 268 267 266 265 264 264 263
293 293 293 294 295 295 295 296 296 296 296 295 295 294 293 293 292 292 292 292 292 293 292 292 292 291 290 289 288 287 286 285 285 284 284 283 283 283 283 283 283 283 284 284 284 284 284 284 284 284 283 283 283 283 283 282 282 282 282 281 281 280 280 280 279 279 278 277 277 276 275 274 273 272 271 270 269 268 267 267 266 265 264 263 262
294 295 295 296 296 296 296 296 296 295 295 294 294 293 293 293 293 293 293 293 293 293 293 292 292 291 291 290 289 289 288 287 287 286 286 285 285 285 285 285 285 285 285 285 285 285 285 285 284 284 284 284 284 284 284 284 283 283 282 282 281 281 281 280 280 280 279 278 277 276 275 274 273 272 271 270 269 268 267 266 265 264 263 262 261
299 299 299 299 298 298 297 297 296 296 295 295 294 294 294 294 294 294 294 295 295 295 294 294 294 293 293 292 292 291 290 290 289 289 288 288 288 288 287 287 287 287 287 286 286 286 286 286 286 286 286 286 286 285 285 285 285 284 284 283 283 282 282 281 281 280 280 279 278 277 276 274 273 272 270 269 267 266 265 264 263 262 261 260 259
305 304 304 303 302 301 301 300 299 299 298 297 297 297 297 297 297 297 297 297 297 297 296 296 296 295 295 294 294 293 293 292 292 291 291 290 290 289 289 289 289 289 289 288 288 288 288 288 288 288 288 288 287 287 287 286 286 286 285 284 284 283 283 282 282 281 280 279 278 277 275 274 272 270 269 267 265 264 262 261 260 259 258 257 257
309 308 308 308 308 307 307 306 305 304 303 302 302 301 301 300 300 300 300 300 299 299 299 298 297 297 296 296 296 295 294 294 293 293 292 292 292 292 291 291 291 291 291 291 291 291 290 290 289 289 289 289 289 288 288 288 287 287 286 285 285 284 284 283 282 281 280 278 277 276 275 273 270 268 266 265 263 261 260 259 258 256 256 255 254
312 311 310 310 309 309 309 309 308 308 307 306 305 304 303 303 302 302 302 301 301 300 300 300 299 299 298 298 297 297 296 296 296 295 295 295 295 294 294 294 294 294 294 293 293 292 292 292 291 290 290 290 290 289 289 289 288 288 287 287 286 285 284 283 282 281 279 277 276 274 272 271 269 267 264 262 260 259 257 256 255 254 253 252 252
315 314 312 311 310 309 309 308 308 307 306 306 305 304 304 303 303 303 302 302 302 302 302 301 301 300 300 300 299 299 299 299 299 298 298 298 297 297 296 296 296 295 295 295 294 294 293 293 292 292 291 291 291 290 290 290 289 288 288 288 287 286 285 284 283 282 280 277 275 272 270 268 266 264 262 260 258 256 255 253 252 251 250 249 249
316 315 314 313 312 311 310 310 309 308 307 307 306 305 305 304 304 304 304 304 304 304 303 303 303 302 302 302 302 302 302 301 301 301 300 299 299 298 298 297 297 297 296 296 295 295 294 294 293 293 293 292 292 291 291 291 290 289 289 288 288 288 287 286 284 282 280 277 275 272 268 265 263 260 258 257 256 254 252 250 249 247 247 247 247
318 316 315 314 313 313 312 311 311 310 309 309 308 308 307 307 307 307 306 306 306 305 305 305 305 305 304 304 304 304 304 303 303 302 302 301 300 300 299 299 299 298 298 297 297 296 296 296 295 295 294 294 293 292 292 291 291 290 290 289 289 288 287 286 285 283 280 278 275 271 267 264 260 257 255 254 253 252 250 248 245 244 243 244 244
320 318 317 315 314 313 312 311 311 310 310 309 309 309 308 308 308 308 308 307 307 307 307 307 307 307 307 306 306 306 305 305 304 304 303 303 302 302 301 301 301 300 300 299 298 298 297 297 297 296 295 295 294 293 292 292 292 292 291 289 288 287 286 286 285 284 281 278 274 270 266 262 258 255 253 251 250 248 247 245 243 240 240 241 241
322 321 319 317 316 315 314 313 312 311 311 310 310 310 309 309 309 309 310 310 310 310 310 309 309 309 309 308 308 307 307 306 306 306 305 305 305 304 304 303 303 302 301 300 300 299 299 298 297 296 295 294 294 293 293 294 293 292 291 289 287 286 286 287 286 284 281 278 274 269 264 260 257 253 251 249 247 245 243 241 240 239 239 239 240
324 323 321 319 318 317 316 315 314 314 313 313 312 312 312 312 312 313 313 313 313 312 312 311 311 310 310 309 309 309 308 308 308 307 307 307 306 306 305 304 304 303 302 302 301 301 300 299 297 296 294 294 295 295 295 295 294 292 290 289 288 287 287 286 284 282 279 276 272 269 264 259 256 253 250 248 246 243 240 237 236 237 238 239 238
325 324 322 321 320 319 318 317 316 316 315 315 315 314 314 315 315 315 315 315 314 314 313 313 312 312 311 311 310 310 310 310 310 309 309 308 307 307 306 306 305 305 304 303 303 302 301 299 297 296 296 296 297 297 297 296 294 292 291 290 289 289 288 286 281 278 276 274 271 269 265 261 256 253 250 246 244 241 238 235 233 235 237 238 237
326 325 323 322 321 320 319 319 318 318 317 317 317 316 316 316 316 316 316 316 315 315 315 314 314 313 313 313 313 312 312 312 312 311 310 310 309 308 308 308 307 307 306 306 305 304 302 300 299 299 300 300 300 299 298 297 295 294 294 293 291 290 289 286 280 276 274 273 272 269 266 262 257 252 248 244 241 238 236 232 232 234 235 236 236
327 325 324 322 321 320 320 319 319 319 318 318 318 318 317 317 317 317 317 317 317 317 316 316 316 316 315 315 315 315 314 314 313 313 312 311 311 310 310 310 309 309 308 308 306 305 303 302 302 302 303 303 302 301 299 298 297 296 296 295 293 293 291 285 280 277 274 273 272 269 265 261 255 249 244 241 237 235 233 231 231 232 233 234 234
327 326 324 323 322 321 320 320 319 319 319 319 319 318 318 318 318 318 318 318 318 318 318 318 318 318 318 317 317 317 316 315 315 314 313 313 313 312 312 312 311 311 310 309 307 306 305 305 305 305 305 304 304 302 300 300 299 298 298 296 296 296 292 285 281 279 276 273 270 267 263 258 251 244 239 235 233 232 232 231 230 230 231 232 233
327 326 325 323 322 321 321 320 320 320 320 320 320 320 319 320 320 320 320 320 320 320 320 320 320 320 319 319 318 318 317 316 315 315 315 315 315 314 314 313 313 312 311 310 309 308 308 309 308 306 305 305 304 303 302 302 302 301 300 299 298 297 293 288 285 282 278 273 268 264 258 251 244 237 232 229 229 231 232 231 229 229 229 231 232
326 326 325 323 322 322 321 321 321 321 321 321 321 321 321 321 321 321 321 321 322 322 322 321 321 321 321 320 319 318 317 317 316 316 316 316 316 316 315 314 314 313 312 311 310 310 311 311 309 306 305 305 305 304 303 303 303 302 301 300 299 298 294 291 288 284 277 271 265 257 251 243 236 231 228 227 227 229 230 230 229 229 230 230 230
326 325 325 324 322 322 322 321 321 321 321 321 322 322 322 322 322 322 322 323 323 323 323 323 322 322 321 321 320 319 318 318 318 318 318 318 318 317 316 315 314 314 313 313 312 312 313 312 309 306 305 305 305 303 303 303 304 303 303 302 301 299 296 292 289 282 272 265 259 250 243 237 232 229 227 227 227 227 228 229 229 230 231 230 228
326 325 325 324 323 322 322 322 322 322 322 322 322 323 323 323 322 323 323 324 324 324 323 323 323 323 322 321 320 319 319 319 319 319 319 319 318 318 316 315 315 315 315 315 315 315 316 314 310 306 306 305 304 303 302 303 305 305 305 304 301 298 295 291 287 279 266 256 249 243 238 233 231 229 227 225 225 225 225 225 225 225 227 227 225
326 326 325 324 323 323 323 322 322 322 322 322 323 324 324 324 323 324 324 324 324 324 324 324 324 323 322 321 321 320 320 320 321 321 320 320 319 319 317 316 317 316 316 317 318 318 318 316 311 308 307 306 304 303 302 303 306 307 306 304 300 295 291 287 284 275 261 249 242 236 232 229 226 224 222 220 219 219 219 219 220 221 221 221 219
327 326 325 324 324 323 323 323 322 322 323 323 323 324 324 324 324 324 325 325 325 325 324 324 324 324 323 322 321 321 321 322 322 321 321 320 320 319 318 318 318 318 318 319 320 320 321 318 311 307 307 307 305 304 303 304 308 308 306 302 297 290 285 282 280 272 256 243 237 231 226 222 220 217 215 214 213 214 216 217 218 218 217 214 209
327 326 325 324 324 323 323 323 323 323 323 323 323 324 325 325 325 325 325 325 325 325 325 325 324 324 323 322 322 322 322 323 322 322 321 321 320 319 319 319 319 319 319 320 321 321 322 320 313 307 306 306 306 305 304 306 309 309 304 300 294 286 280 276 274 268 255 238 231 227 221 215 213 211 211 212 214 216 215 213 211 209 207 206 204
327 326 326 325 324 324 323 323 323 323 323 323 323 324 325 325 325 325 325 325 325 325 325 325 325 324 323 323 322 323 323 323 323 322 322 322 321 320 319 320 320 320 320 322 323 323 324 325 319 311 308 306 305 304 305 307 310 309 304 300 292 281 275 270 265 262 253 238 227 222 216 211 207 207 209 211 213 213 210 207 204 202 201 203 205
328 327 326 325 324 324 324 324 324 323 323 323 323 324 325 325 325 325 325 325 325 326 326 325 325 325 324 323 323 323 324 324 323 323 323 323 322 321 321 321 321 321 321 324 326 326 327 329 327 320 315 310 307 305 305 307 308 306 304 301 293 277 266 261 256 253 249 239 227 219 213 209 207 206 208 210 209 207 205 203 202 202 203 205 207
328 327 326 325 324 324 324 325 324 324 323 323 323 325 326 325 325 325 325 325 325 326 326 326 325 325 324 323 323 324 324 324 323 323 323 324 323 322 322 322 322 322 322 324 327 328 328 330 330 327 322 318 314 310 309 309 308 304 301 298 293 278 262 253 248 244 242 238 230 220 212 211 210 208 208 209 209 206 204 202 202 203 204 205 206